Location: Fort Wayne
(41.1310°N, 85.1290°W)
Time: 21:21:58
(UTC-05:00)

Meteor 2-9 Rocket - Visible Passes

Search period start: 17 December 2014 00:00
Search period end: 27 December 2014 00:00
Orbit: 791 x 896 km, 81.3° (Epoch: 17 December)

Date Brightness Start Highest point End Pass type
(mag) Time Alt. Az. Time Alt. Az. Time Alt. Az.
17 Dec 4.7 06:40:20 10° S 06:45:38 61° E 06:50:52 10° NNE visible
17 Dec 6.6 19:01:53 10° NW 19:06:01 23° W 19:10:12 10° SW visible
18 Dec 4.9 06:26:25 10° S 06:31:37 53° E 06:36:47 10° NNE visible
18 Dec 6.4 18:47:39 10° NW 18:52:03 26° W 18:56:31 10° SW visible
19 Dec 5.2 06:12:31 10° SSE 06:17:37 46° E 06:22:41 10° NNE visible
19 Dec 6.2 18:33:27 10° NNW 18:38:04 29° W 18:42:47 10° SSW visible
20 Dec 5.4 05:58:39 10° SSE 06:03:37 40° E 06:08:33 10° NNE visible
20 Dec 6.0 18:19:16 10° NNW 18:24:06 33° W 18:29:01 10° SSW visible
21 Dec 5.6 05:44:49 10° SSE 05:49:38 35° E 05:54:25 10° NNE visible
21 Dec 5.0 07:27:58 10° SW 07:32:26 27° WNW 07:36:54 10° NNW visible
21 Dec 5.8 18:05:07 10° NNW 18:10:07 38° W 18:15:12 10° SSW visible
22 Dec 5.8 05:31:00 10° SSE 05:35:39 31° E 05:40:15 10° NNE visible
22 Dec 4.8 07:13:41 10° SW 07:18:21 30° WNW 07:23:00 10° N visible
22 Dec 5.6 17:50:59 10° NNW 17:56:07 43° W 18:01:22 10° SSW visible
23 Dec 6.0 05:17:14 10° SE 05:21:40 27° E 05:26:04 10° NNE visible
23 Dec 4.6 06:59:27 10° SW 07:04:16 34° WNW 07:09:05 10° N visible
23 Dec 5.3 17:36:52 10° NNW 17:42:08 49° W 17:47:30 10° SSW visible
24 Dec 6.2 05:03:31 10° SE 05:07:41 24° E 05:11:51 10° NE visible
24 Dec 4.5 06:45:15 10° SW 06:50:12 39° WNW 06:55:09 10° N visible
25 Dec 6.4 04:49:50 10° SE 04:53:43 21° E 04:57:36 10° NE visible
25 Dec 4.3 06:31:04 10° SSW 06:36:08 44° WNW 06:41:12 10° N visible
26 Dec 6.5 04:36:12 10° SE 04:39:46 18° E 04:43:19 10° NE visible
26 Dec 4.2 06:16:55 10° SSW 06:22:04 50° WNW 06:27:14 10° N visible
